• In France
  • List of Countries
  • For 7 days
  • Water Temperature
  • Satellite Maps
  • Weather Map
  • Weather Widgets
  • user-avatar
    Login

    Hourly Weather Horoda

    Today, 21 August, Tuesday

    Time Temperature Precipitation Wind Pressure Humidity
    00:00 +7°C° 0 mm 2 mps 588 mmHg 84%
    01:00 +7°C° 0 mm 2 mps 588 mmHg 83%
    02:00 +6°C° 0 mm 2 mps 587 mmHg 82%
    03:00 +7°C° 0 mm 2 mps 587 mmHg 83%
    04:00 +7°C° 0 mm 2 mps 588 mmHg 82%
    05:00 +7°C° 0 mm 2 mps 588 mmHg 81%
    06:00 +7°C° 0 mm 2 mps 588 mmHg 80%
    07:00 +10°C° 0 mm 2 mps 589 mmHg 72%
    08:00 +13°C° 0 mm 2 mps 590 mmHg 64%
    09:00 +16°C° 0 mm 2 mps 591 mmHg 55%
    10:00 +17°C° 0 mm 2 mps 591 mmHg 53%
    11:00 +18°C° 0 mm 2 mps 592 mmHg 51%
    12:00 +19°C° 0 mm 2 mps 592 mmHg 48%
    13:00 +19°C° 0.2 mm 2 mps 592 mmHg 50%
    14:00 +18°C° 0.2 mm 2 mps 591 mmHg 52%
    15:00 +18°C° 0.2 mm 2 mps 591 mmHg 54%
    16:00 +17°C° 0.1 mm 2 mps 591 mmHg 59%
    17:00 +16°C° 0.1 mm 1 mps 590 mmHg 64%
    18:00 +15°C° 0.1 mm 1 mps 590 mmHg 69%
    19:00 +14°C° 0 mm 1 mps 589 mmHg 72%
    20:00 +12°C° 0 mm 1 mps 588 mmHg 74%
    21:00 +10°C° 0 mm 2 mps 588 mmHg 77%
    22:00 +9°C° 0 mm 2 mps 588 mmHg 74%
    23:00 +9°C° 0 mm 2 mps 587 mmHg 72%

    Tomorrow, 22 August, Wednesday

    Time Temperature Precipitation Wind Pressure Humidity
    00:00 +9°C° 0 mm 2 mps 587 mmHg 69%
    01:00 +9°C° 0 mm 2 mps 587 mmHg 66%
    02:00 +8°C° 0 mm 2 mps 587 mmHg 63%
    03:00 +8°C° 0 mm 2 mps 587 mmHg 60%
    04:00 +9°C° 0 mm 2 mps 587 mmHg 60%
    05:00 +9°C° 0 mm 2 mps 587 mmHg 61%
    06:00 +11°C° 0 mm 1 mps 588 mmHg 62%
    07:00 +12°C° 0.1 mm 1 mps 589 mmHg 58%
    08:00 +14°C° 0.1 mm 1 mps 589 mmHg 55%
    09:00 +16°C° 0.1 mm 1 mps 590 mmHg 51%
    10:00 +18°C° 0 mm 1 mps 590 mmHg 50%
    11:00 +18°C° 0 mm 2 mps 590 mmHg 49%
    12:00 +19°C° 0 mm 2 mps 591 mmHg 48%
    13:00 +19°C° 0.4 mm 2 mps 590 mmHg 51%
    14:00 +18°C° 0.4 mm 2 mps 590 mmHg 55%
    15:00 +18°C° 0.4 mm 2 mps 590 mmHg 58%
    16:00 +17°C° 0.5 mm 2 mps 589 mmHg 64%
    17:00 +16°C° 0.5 mm 1 mps 589 mmHg 70%
    18:00 +15°C° 0.5 mm 1 mps 589 mmHg 76%
    19:00 +14°C° 0.3 mm 1 mps 589 mmHg 80%
    20:00 +13°C° 0.3 mm 1 mps 588 mmHg 83%
    21:00 +12°C° 0.3 mm 1 mps 588 mmHg 86%
    22:00 +11°C° 0.2 mm 1 mps 588 mmHg 86%
    23:00 +11°C° 0.2 mm 1 mps 588 mmHg 86%

    Day after tomorrow, 23 August, Thursday

    Time Temperature Precipitation Wind Pressure Humidity
    00:00 +10°C° 0.2 mm 1 mps 588 mmHg 86%
    01:00 +10°C° 0 mm 1 mps 588 mmHg 86%
    02:00 +10°C° 0 mm 1 mps 588 mmHg 86%
    03:00 +10°C° 0 mm 1 mps 588 mmHg 86%
    04:00 +10°C° 0 mm 1 mps 588 mmHg 85%
    05:00 +10°C° 0 mm 1 mps 588 mmHg 85%
    06:00 +11°C° 0 mm 1 mps 588 mmHg 84%
    07:00 +12°C° 0 mm 1 mps 589 mmHg 78%
    08:00 +14°C° 0 mm 1 mps 590 mmHg 72%
    09:00 +16°C° 0 mm 1 mps 591 mmHg 65%
    10:00 +16°C° 0.2 mm 2 mps 591 mmHg 64%
    11:00 +17°C° 0.2 mm 2 mps 591 mmHg 62%
    12:00 +18°C° 0.2 mm 2 mps 592 mmHg 60%
    13:00 +17°C° 0.7 mm 2 mps 591 mmHg 60%
    14:00 +17°C° 0.7 mm 2 mps 591 mmHg 60%
    15:00 +17°C° 0.7 mm 2 mps 591 mmHg 61%
    16:00 +16°C° 0.2 mm 2 mps 591 mmHg 64%
    17:00 +15°C° 0.2 mm 1 mps 590 mmHg 68%
    18:00 +15°C° 0.2 mm 1 mps 590 mmHg 71%
    19:00 +13°C° 0 mm 1 mps 590 mmHg 75%
    20:00 +12°C° 0 mm 1 mps 589 mmHg 78%
    21:00 +11°C° 0 mm 1 mps 589 mmHg 82%
    22:00 +10°C° 0 mm 1 mps 589 mmHg 80%
    23:00 +10°C° 0 mm 1 mps 589 mmHg 78%

    24 August, Friday

    Time Temperature Precipitation Wind Pressure Humidity
    00:00 +10°C° 0 mm 1 mps 589 mmHg 76%
    01:00 +9°C° 0 mm 1 mps 588 mmHg 75%
    02:00 +9°C° 0 mm 1 mps 588 mmHg 75%
    03:00 +9°C° 0 mm 1 mps 588 mmHg 74%
    04:00 +9°C° 0 mm 1 mps 588 mmHg 74%
    05:00 +10°C° 0 mm 1 mps 589 mmHg 75%
    06:00 +10°C° 0 mm 1 mps 589 mmHg 75%
    07:00 +12°C° 0 mm 1 mps 590 mmHg 69%
    08:00 +14°C° 0 mm 1 mps 591 mmHg 63%
    09:00 +16°C° 0 mm 2 mps 592 mmHg 57%
    10:00 +17°C° 0 mm 2 mps 592 mmHg 57%
    11:00 +18°C° 0 mm 2 mps 592 mmHg 56%
    12:00 +18°C° 0 mm 2 mps 592 mmHg 56%
    13:00 +18°C° 0.2 mm 2 mps 591 mmHg 57%
    14:00 +18°C° 0.2 mm 2 mps 591 mmHg 59%
    15:00 +18°C° 0.2 mm 2 mps 591 mmHg 60%
    16:00 +17°C° 0.1 mm 2 mps 591 mmHg 64%
    17:00 +16°C° 0.1 mm 2 mps 590 mmHg 68%
    18:00 +15°C° 0.1 mm 1 mps 590 mmHg 72%
    19:00 +13°C° 0 mm 1 mps 589 mmHg 74%
    20:00 +12°C° 0 mm 1 mps 589 mmHg 75%
    21:00 +11°C° 0 mm 1 mps 588 mmHg 77%
    22:00 +10°C° 0 mm 1 mps 588 mmHg 75%
    23:00 +10°C° 0 mm 1 mps 588 mmHg 73%

    25 August, Saturday

    Time Temperature Precipitation Wind Pressure Humidity
    00:00 +10°C° 0 mm 1 mps 588 mmHg 71%
    01:00 +9°C° 0 mm 1 mps 588 mmHg 71%
    02:00 +8°C° 0 mm 2 mps 587 mmHg 71%
    03:00 +8°C° 0 mm 2 mps 587 mmHg 71%
    04:00 +9°C° 0 mm 1 mps 587 mmHg 72%
    05:00 +10°C° 0 mm 1 mps 587 mmHg 72%
    06:00 +10°C° 0 mm 1 mps 588 mmHg 73%
    07:00 +12°C° 0 mm 1 mps 589 mmHg 66%
    08:00 +14°C° 0 mm 2 mps 590 mmHg 59%
    09:00 +17°C° 0 mm 2 mps 591 mmHg 53%
    10:00 +18°C° 0 mm 2 mps 591 mmHg 51%
    11:00 +19°C° 0 mm 2 mps 591 mmHg 50%
    12:00 +20°C° 0 mm 2 mps 591 mmHg 49%
    13:00 +19°C° 0 mm 2 mps 591 mmHg 51%
    14:00 +19°C° 0 mm 2 mps 591 mmHg 53%
    15:00 +19°C° 0 mm 2 mps 591 mmHg 54%
    16:00 +18°C° 0 mm 2 mps 590 mmHg 59%
    17:00 +17°C° 0 mm 2 mps 590 mmHg 63%
    18:00 +15°C° 0 mm 1 mps 589 mmHg 68%
    19:00 +14°C° 0 mm 1 mps 589 mmHg 69%
    20:00 +12°C° 0 mm 2 mps 588 mmHg 70%
    21:00 +10°C° 0 mm 2 mps 588 mmHg 71%
    22:00 +9°C° 0 mm 2 mps 587 mmHg 68%
    23:00 +9°C° 0 mm 2 mps 587 mmHg 66%

    26 August, Sunday

    Time Temperature Precipitation Wind Pressure Humidity
    00:00 +9°C° 0 mm 2 mps 587 mmHg 63%
    01:00 +8°C° 0 mm 2 mps 587 mmHg 63%
    02:00 +8°C° 0 mm 2 mps 586 mmHg 63%
    03:00 +8°C° 0 mm 2 mps 586 mmHg 63%
    04:00 +8°C° 0 mm 2 mps 586 mmHg 64%
    05:00 +9°C° 0 mm 2 mps 587 mmHg 65%
    06:00 +9°C° 0 mm 2 mps 587 mmHg 65%
    07:00 +13°C° 0 mm 2 mps 588 mmHg 58%
    08:00 +15°C° 0 mm 2 mps 589 mmHg 52%
    09:00 +18°C° 0 mm 2 mps 590 mmHg 45%
    10:00 +19°C° 0 mm 2 mps 590 mmHg 43%
    11:00 +20°C° 0 mm 2 mps 590 mmHg 41%
    12:00 +21°C° 0 mm 2 mps 590 mmHg 40%
    13:00 +21°C° 0 mm 2 mps 590 mmHg 40%
    14:00 +21°C° 0 mm 2 mps 590 mmHg 41%
    15:00 +21°C° 0 mm 2 mps 589 mmHg 41%
    16:00 +19°C° 0 mm 2 mps 589 mmHg 47%
    17:00 +18°C° 0 mm 2 mps 588 mmHg 52%
    18:00 +16°C° 0 mm 1 mps 587 mmHg 58%
    19:00 +15°C° 0 mm 1 mps 587 mmHg 57%
    20:00 +13°C° 0 mm 2 mps 586 mmHg 55%
    21:00 +12°C° 0 mm 2 mps 586 mmHg 54%
    22:00 +10°C° 0 mm 2 mps 586 mmHg 51%
    23:00 +10°C° 0 mm 2 mps 585 mmHg 47%
    Show more